When you browse on this site, cookies collect data to enhance your experience and personalize the content and advertising you see.
Visit our Privacy Policy to learn more. By continuing to use the site, you agree to this use of cookies and data.
  • In Schweiz
  • Länderverzeichnis
  • Für 7 Tage
  • Wassertemperatur
  • Wetterkarte
  • Widgets
  • user-avatar
    Anmelden

    Stündliche Wetter Stafford

    Heute, 18 September, Mittwoch

    Zeit Temperatur Niederschläge Wind Luftdruck Luftfeuchtigkeit
    00:00 +9°C° 0 mm 1 m/S 763 mmHg 87%
    01:00 +9°C° 0 mm 1 m/S 763 mmHg 88%
    02:00 +9°C° 0 mm 1 m/S 763 mmHg 88%
    03:00 +7°C° 0 mm 0 m/S 763 mmHg 88%
    04:00 +7°C° 0 mm 0 m/S 763 mmHg 89%
    05:00 +7°C° 0 mm 0 m/S 764 mmHg 89%
    06:00 +7°C° 0 mm 0 m/S 764 mmHg 90%
    07:00 +9°C° 0 mm 0 m/S 764 mmHg 85%
    08:00 +11°C° 0 mm 1 m/S 764 mmHg 80%
    09:00 +13°C° 0 mm 1 m/S 764 mmHg 75%
    10:00 +14°C° 0 mm 1 m/S 764 mmHg 70%
    11:00 +16°C° 0 mm 1 m/S 764 mmHg 65%
    12:00 +18°C° 0 mm 1 m/S 764 mmHg 61%
    13:00 +17°C° 0 mm 2 m/S 764 mmHg 61%
    14:00 +18°C° 0 mm 2 m/S 764 mmHg 62%
    15:00 +18°C° 0 mm 2 m/S 764 mmHg 62%
    16:00 +17°C° 0 mm 2 m/S 763 mmHg 68%
    17:00 +16°C° 0 mm 2 m/S 763 mmHg 73%
    18:00 +15°C° 0 mm 2 m/S 763 mmHg 79%
    19:00 +14°C° 0 mm 2 m/S 764 mmHg 81%
    20:00 +13°C° 0 mm 2 m/S 764 mmHg 84%
    21:00 +12°C° 0 mm 2 m/S 764 mmHg 86%
    22:00 +12°C° 0 mm 2 m/S 764 mmHg 88%
    23:00 +10°C° 0 mm 2 m/S 764 mmHg 89%

    Morgen, 19 September, Donnerstag

    Zeit Temperatur Niederschläge Wind Luftdruck Luftfeuchtigkeit
    00:00 +11°C° 0 mm 1 m/S 764 mmHg 91%
    01:00 +11°C° 0 mm 1 m/S 764 mmHg 91%
    02:00 +11°C° 0 mm 1 m/S 764 mmHg 91%
    03:00 +11°C° 0 mm 1 m/S 764 mmHg 92%
    04:00 +11°C° 0 mm 1 m/S 764 mmHg 92%
    05:00 +10°C° 0 mm 1 m/S 764 mmHg 92%
    06:00 +10°C° 0 mm 1 m/S 764 mmHg 92%
    07:00 +12°C° 0 mm 1 m/S 764 mmHg 87%
    08:00 +14°C° 0 mm 1 m/S 765 mmHg 82%
    09:00 +15°C° 0 mm 1 m/S 765 mmHg 77%
    10:00 +18°C° 0 mm 1 m/S 765 mmHg 73%
    11:00 +19°C° 0 mm 1 m/S 765 mmHg 69%
    12:00 +19°C° 0 mm 0 m/S 765 mmHg 64%
    13:00 +19°C° 0 mm 0 m/S 764 mmHg 63%
    14:00 +19°C° 0 mm 0 m/S 764 mmHg 62%
    15:00 +20°C° 0 mm 0 m/S 764 mmHg 61%
    16:00 +18°C° 0 mm 0 m/S 763 mmHg 66%
    17:00 +17°C° 0 mm 0 m/S 763 mmHg 70%
    18:00 +16°C° 0 mm 0 m/S 763 mmHg 75%
    19:00 +15°C° 0 mm 0 m/S 763 mmHg 78%
    20:00 +15°C° 0 mm 1 m/S 763 mmHg 80%
    21:00 +15°C° 0 mm 1 m/S 764 mmHg 83%
    22:00 +14°C° 0 mm 1 m/S 763 mmHg 84%
    23:00 +14°C° 0 mm 1 m/S 763 mmHg 85%

    übermorgen, 20 September, Freitag

    Zeit Temperatur Niederschläge Wind Luftdruck Luftfeuchtigkeit
    00:00 +14°C° 0 mm 1 m/S 763 mmHg 86%
    01:00 +13°C° 0 mm 1 m/S 763 mmHg 86%
    02:00 +13°C° 0 mm 1 m/S 763 mmHg 87%
    03:00 +12°C° 0 mm 1 m/S 762 mmHg 88%
    04:00 +12°C° 0 mm 1 m/S 762 mmHg 89%
    05:00 +12°C° 0 mm 2 m/S 761 mmHg 89%
    06:00 +10°C° 0 mm 2 m/S 761 mmHg 90%
    07:00 +13°C° 0 mm 2 m/S 761 mmHg 86%
    08:00 +13°C° 0 mm 3 m/S 761 mmHg 82%
    09:00 +16°C° 0 mm 3 m/S 761 mmHg 78%
    10:00 +17°C° 0 mm 4 m/S 760 mmHg 74%
    11:00 +17°C° 0 mm 5 m/S 760 mmHg 70%
    12:00 +19°C° 0 mm 5 m/S 759 mmHg 67%
    13:00 +19°C° 0 mm 5 m/S 759 mmHg 65%
    14:00 +20°C° 0 mm 6 m/S 758 mmHg 64%
    15:00 +20°C° 0 mm 6 m/S 757 mmHg 62%
    16:00 +19°C° 0 mm 6 m/S 757 mmHg 64%
    17:00 +17°C° 0 mm 5 m/S 756 mmHg 67%
    18:00 +15°C° 0 mm 5 m/S 756 mmHg 69%
    19:00 +14°C° 0 mm 5 m/S 755 mmHg 69%
    20:00 +13°C° 0 mm 6 m/S 755 mmHg 69%
    21:00 +13°C° 0 mm 6 m/S 755 mmHg 69%
    22:00 +11°C° 0 mm 6 m/S 755 mmHg 72%
    23:00 +11°C° 0 mm 6 m/S 754 mmHg 74%

    21 September, Samstag

    Zeit Temperatur Niederschläge Wind Luftdruck Luftfeuchtigkeit
    00:00 +11°C° 0 mm 6 m/S 753 mmHg 77%
    01:00 +12°C° 0 mm 5 m/S 753 mmHg 77%
    02:00 +10°C° 0 mm 5 m/S 752 mmHg 77%
    03:00 +10°C° 0 mm 5 m/S 752 mmHg 77%
    04:00 +10°C° 0 mm 5 m/S 751 mmHg 76%
    05:00 +10°C° 0 mm 5 m/S 751 mmHg 75%
    06:00 +10°C° 0 mm 5 m/S 750 mmHg 74%
    07:00 +12°C° 0 mm 5 m/S 750 mmHg 71%
    08:00 +13°C° 0 mm 6 m/S 750 mmHg 69%
    09:00 +14°C° 0 mm 6 m/S 750 mmHg 66%
    10:00 +16°C° 0 mm 6 m/S 750 mmHg 64%
    11:00 +17°C° 0 mm 6 m/S 749 mmHg 62%
    12:00 +20°C° 0 mm 6 m/S 749 mmHg 59%
    13:00 +20°C° 0.1 mm 6 m/S 748 mmHg 60%
    14:00 +21°C° 0.1 mm 5 m/S 748 mmHg 61%
    15:00 +22°C° 0.1 mm 5 m/S 747 mmHg 62%
    16:00 +21°C° 0.1 mm 5 m/S 747 mmHg 66%
    17:00 +20°C° 0.1 mm 5 m/S 746 mmHg 70%
    18:00 +17°C° 0.1 mm 5 m/S 746 mmHg 74%
    19:00 +17°C° 0.1 mm 5 m/S 746 mmHg 75%
    20:00 +17°C° 0.1 mm 4 m/S 746 mmHg 77%
    21:00 +17°C° 0.1 mm 4 m/S 745 mmHg 78%
    22:00 +15°C° 0.4 mm 4 m/S 745 mmHg 81%
    23:00 +15°C° 0.4 mm 4 m/S 744 mmHg 84%

    22 September, Sonntag

    Zeit Temperatur Niederschläge Wind Luftdruck Luftfeuchtigkeit
    00:00 +16°C° 0.4 mm 3 m/S 744 mmHg 87%
    01:00 +16°C° 0.1 mm 3 m/S 744 mmHg 89%
    02:00 +16°C° 0.1 mm 3 m/S 743 mmHg 92%
    03:00 +16°C° 0.1 mm 3 m/S 743 mmHg 94%
    04:00 +16°C° 0.1 mm 3 m/S 743 mmHg 95%
    05:00 +17°C° 0.1 mm 3 m/S 742 mmHg 96%
    06:00 +17°C° 0.1 mm 3 m/S 742 mmHg 97%
    07:00 +17°C° 0.1 mm 3 m/S 742 mmHg 95%
    08:00 +17°C° 0.1 mm 4 m/S 743 mmHg 93%
    09:00 +16°C° 0.1 mm 5 m/S 743 mmHg 92%
    10:00 +17°C° 0.4 mm 5 m/S 743 mmHg 87%
    11:00 +17°C° 0.4 mm 5 m/S 743 mmHg 82%
    12:00 +19°C° 0.4 mm 6 m/S 744 mmHg 77%
    13:00 +19°C° 0.3 mm 6 m/S 744 mmHg 74%
    14:00 +20°C° 0.3 mm 6 m/S 744 mmHg 71%
    15:00 +20°C° 0.3 mm 6 m/S 744 mmHg 67%
    16:00 +17°C° 0.3 mm 5 m/S 744 mmHg 73%
    17:00 +17°C° 0.3 mm 4 m/S 744 mmHg 78%
    18:00 +14°C° 0.3 mm 3 m/S 744 mmHg 83%
    19:00 +14°C° 0.1 mm 3 m/S 745 mmHg 85%
    20:00 +14°C° 0.1 mm 2 m/S 745 mmHg 87%
    21:00 +13°C° 0.1 mm 2 m/S 746 mmHg 89%
    22:00 +13°C° 0 mm 2 m/S 746 mmHg 90%
    23:00 +12°C° 0 mm 2 m/S 746 mmHg 90%

    23 September, Montag

    Zeit Temperatur Niederschläge Wind Luftdruck Luftfeuchtigkeit
    00:00 +12°C° 0 mm 2 m/S 746 mmHg 90%
    01:00 +10°C° 0 mm 2 m/S 747 mmHg 91%
    02:00 +10°C° 0 mm 2 m/S 747 mmHg 92%
    03:00 +10°C° 0 mm 3 m/S 748 mmHg 93%
    04:00 +10°C° 0 mm 3 m/S 748 mmHg 92%
    05:00 +10°C° 0 mm 3 m/S 748 mmHg 92%
    06:00 +10°C° 0 mm 3 m/S 749 mmHg 92%
    07:00 +11°C° 0 mm 3 m/S 749 mmHg 87%
    08:00 +12°C° 0 mm 4 m/S 749 mmHg 82%
    09:00 +13°C° 0 mm 4 m/S 750 mmHg 77%
    10:00 +14°C° 0 mm 5 m/S 750 mmHg 74%
    11:00 +15°C° 0 mm 5 m/S 750 mmHg 71%
    12:00 +16°C° 0 mm 5 m/S 750 mmHg 68%
    13:00 +16°C° 0.1 mm 5 m/S 750 mmHg 68%
    14:00 +16°C° 0.1 mm 5 m/S 749 mmHg 67%
    15:00 +16°C° 0.1 mm 5 m/S 749 mmHg 67%
    16:00 +15°C° 0 mm 4 m/S 749 mmHg 73%
    17:00 +15°C° 0 mm 4 m/S 748 mmHg 78%
    18:00 +14°C° 0 mm 4 m/S 748 mmHg 84%
    19:00 +14°C° 0.5 mm 4 m/S 748 mmHg 87%
    20:00 +13°C° 0.5 mm 4 m/S 748 mmHg 90%
    21:00 +13°C° 0.5 mm 5 m/S 748 mmHg 93%
    22:00 +13°C° 0.5 mm 4 m/S 747 mmHg 94%
    23:00 +14°C° 0.5 mm 4 m/S 747 mmHg 96%
    Mehr zeigen